TimeMDT,TemperatureF,Dew PointF,Humidity,Sea Level PressureIn,VisibilityMPH,Wind Direction,Wind SpeedMPH,Gust SpeedMPH,PrecipitationIn,Events,Conditions,WindDirDegrees,DateUTC
12:51 AM,73.0,54.0,51,29.97,10.0,North,5.8,-,N/A,,Clear,350,2013-07-01 06:51:00
1:51 AM,70.0,53.1,55,29.99,10.0,NNW,3.5,-,N/A,,Clear,330,2013-07-01 07:51:00
2:51 AM,66.0,54.0,65,29.98,10.0,Calm,Calm,-,N/A,,Clear,0,2013-07-01 08:51:00
3:51 AM,64.0,53.1,67,29.98,10.0,East,3.5,-,N/A,,Clear,80,2013-07-01 09:51:00
4:51 AM,61.0,52.0,72,29.99,10.0,NNE,3.5,-,N/A,,Clear,30,2013-07-01 10:51:00
5:51 AM,59.0,52.0,78,29.99,10.0,Calm,Calm,-,N/A,,Clear,0,2013-07-01 11:51:00
6:51 AM,61.0,52.0,72,30.00,10.0,Calm,Calm,-,N/A,,Clear,0,2013-07-01 12:51:00
7:51 AM,66.0,54.0,65,30.00,10.0,Calm,Calm,-,N/A,,Clear,0,2013-07-01 13:51:00
8:51 AM,69.1,54.0,58,30.01,10.0,Calm,Calm,-,N/A,,Clear,0,2013-07-01 14:51:00
9:51 AM,75.9,55.0,48,30.02,10.0,Calm,Calm,-,N/A,,Clear,0,2013-07-01 15:51:00
10:51 AM,80.1,55.0,42,30.01,10.0,Calm,Calm,-,N/A,,Clear,0,2013-07-01 16:51:00
11:51 AM,86.0,53.1,32,29.99,10.0,West,4.6,-,N/A,,Clear,260,2013-07-01 17:51:00
12:51 PM,89.1,45.0,22,29.98,10.0,Calm,Calm,-,N/A,,Clear,0,2013-07-01 18:51:00
1:51 PM,91.0,46.0,21,29.98,10.0,SE,4.6,-,N/A,,Clear,130,2013-07-01 19:51:00
2:51 PM,91.9,46.0,21,29.98,10.0,Calm,Calm,-,N/A,,Clear,0,2013-07-01 20:51:00
3:51 PM,93.0,46.0,20,29.96,10.0,Variable,3.5,-,N/A,,Clear,0,2013-07-01 21:51:00
4:51 PM,93.9,48.0,21,29.95,10.0,Calm,Calm,-,N/A,,Clear,0,2013-07-01 22:51:00
5:51 PM,93.9,46.9,20,29.95,10.0,NNW,3.5,-,N/A,,Clear,330,2013-07-01 23:51:00
6:51 PM,93.0,46.9,20,29.94,10.0,West,3.5,-,N/A,,Clear,270,2013-07-02 00:51:00
7:51 PM,91.0,51.1,25,29.92,10.0,West,4.6,-,N/A,,Clear,280,2013-07-02 01:51:00
8:51 PM,84.9,59.0,41,29.94,10.0,Calm,Calm,-,N/A,,Clear,0,2013-07-02 02:51:00
9:51 PM,77.0,57.0,50,29.96,10.0,Calm,Calm,-,N/A,,Clear,0,2013-07-02 03:51:00
10:51 PM,73.0,62.1,68,29.98,10.0,NNW,5.8,-,N/A,,Clear,340,2013-07-02 04:51:00
11:51 PM,66.9,59.0,76,30.00,10.0,WSW,5.8,-,N/A,,Clear,250,2013-07-02 05:51:00